This is the latest recevied weather packets stored in our database for station/object W4OTS. If no packets are shown the sender has not sent any weather packets the latest 10 day(s).
| Time | Temp. | Humidity | Pressure | Rain* | Wind** | Luminosity | Snow |
|---|---|---|---|---|---|---|---|
| 1777840592 | 18.89° C | 40% | 1018.6 hPa | 0 mm | - | 32 W/m² | - |
| 1777840289 | 18.33° C | 43% | 1018.3 hPa | 0 mm | - | 32 W/m² | - |
| 1777839986 | 18.33° C | 39% | 1018.4 hPa | 0 mm | - | 32 W/m² | - |
| 1777839684 | 18.33° C | 39% | 1018.6 hPa | 0 mm | - | 35 W/m² | - |
| 1777839382 | 18.33° C | 36% | 1018.8 hPa | 0 mm | - | 34 W/m² | - |
| 1777839080 | 18.33° C | 40% | 1018.7 hPa | 0 mm | - | 37 W/m² | - |
| 1777838776 | 18.33° C | 40% | 1019 hPa | 0 mm | - | 71 W/m² | - |
| 1777838472 | 18.33° C | 37% | 1019 hPa | 0 mm | - | 35 W/m² | - |
| 1777838170 | 18.89° C | 38% | 1018.9 hPa | 0 mm | - | 35 W/m² | - |
| 1777837866 | 18.33° C | 38% | 1018.9 hPa | 0 mm | - | 35 W/m² | - |
| 1777837564 | 18.33° C | 36% | 1019 hPa | 0 mm | - | 58 W/m² | - |
| 1777837258 | 18.33° C | 35% | 1019.2 hPa | 0 mm | - | 43 W/m² | - |
| 1777836955 | 18.89° C | 33% | 1019.2 hPa | 0 mm | - | 36 W/m² | - |
| 1777836650 | 18.89° C | 37% | 1019.4 hPa | 0 mm | - | 37 W/m² | - |
| 1777836347 | 18.33° C | 34% | 1019.2 hPa | 0 mm | - | 39 W/m² | - |
| 1777836043 | 18.33° C | 35% | 1019.4 hPa | 0 mm | - | 45 W/m² | - |
| 1777835740 | 18.33° C | 35% | 1019.5 hPa | 0 mm | - | 39 W/m² | - |
| 1777835437 | 18.33° C | 38% | 1019.6 hPa | 0 mm | - | 44 W/m² | - |
| 1777835133 | 17.78° C | 34% | 1019.6 hPa | 0 mm | - | 41 W/m² | - |
| 1777834830 | 18.33° C | 33% | 1019.8 hPa | 0 mm | - | 76 W/m² | - |
| 1777834527 | 18.33° C | 36% | 1019.9 hPa | 0 mm | - | 158 W/m² | - |
| 1777834221 | 18.89° C | 37% | 1019.7 hPa | 0 mm | - | 52 W/m² | - |
| 1777833918 | 18.33° C | 34% | 1019.8 hPa | 0 mm | - | 61 W/m² | - |
| 1777833614 | 19.44° C | 35% | 1019.8 hPa | 0 mm | - | 596 W/m² | - |
| 1777833311 | 18.33° C | 36% | 1020 hPa | 0 mm | - | 613 W/m² | - |
* Rain latest hour (hover to see other rain measurements)
** Current wind speed in m/s (hover to see current wind gust speed)